[[{"header":{"parameterUnit":"m.s-1","parameterCategory":1,"la1":30.2991,"la2":30.254,"lo1":-89.0895,"lo2":-89.0444,"dy":0.0017,"dx":0.0017,"nx":28,"ny":28,"refTime":"2023-03-22T21:00:00:Z","depth":0,"parameterNumber":2,"parameterNumberName":"U-component_of_WINDS"},"data":[0,0,0,0,0,0,0,0,0,0,0,0,0,0,0,0,0,0,0,0,0,0,0,0,0,0,0,0,0,0,0,0,0,0,0,0,0,0,0,0,0,0,0,0,0,0,0,0,0,0,0,0,0,0,0,0,0,0,-1.648,-1.648,0,-1.6543,-1.6544,-1.6545,-1.6565,-1.6564,-1.6564,-1.6564,-1.6632,-1.6634,-1.6636,0,0,0,0,0,0,0,0,0,0,0,0,0,-1.6379,-1.6381,-1.648,-1.648,-1.6481,-1.6543,-1.6544,-1.6545,-1.6565,-1.6564,-1.6564,-1.6564,-1.6631,-1.6634,-1.6636,0,0,0,0,0,0,0,0,0,0,0,0,0,-1.6431,-1.6382,-1.648,-1.6499,-1.6501,-1.6543,-1.6544,-1.6545,-1.6565,-1.6564,-1.6564,-1.6564,-1.663,-1.6633,-1.6636,-1.6665,0,0,-1.6646,-1.6647,0,0,0,0,0,0,0,0,-1.6428,-1.6435,-1.6495,-1.6497,-1.65,-1.6545,-1.6533,-1.6585,-1.6565,-1.6541,-1.6564,-1.6563,-1.6604,-1.6609,-1.6622,-1.6668,-1.6671,-1.6646,-1.6648,-1.665,-1.665,0,0,0,0,0,0,0,-1.6424,-1.6432,-1.6505,-1.6496,-1.6499,-1.6505,-1.6512,-1.6543,-1.6574,-1.6543,-1.6544,-1.6551,-1.6605,-1.6619,-1.6624,-1.6672,-1.6646,-1.6649,-1.6651,-1.6652,-1.6745,-1.6746,0,0,0,0,0,0,-1.6417,-1.6429,-1.6503,-1.6507,-1.6462,-1.6507,-1.6515,-1.6531,-1.6574,-1.658,-1.6552,-1.6552,-1.6614,-1.662,-1.6626,-1.6662,-1.665,-1.6652,-1.6654,-1.6745,-1.6746,-1.6746,0,0,0,0,0,0,-1.6415,-1.6423,-1.65,-1.6468,-1.6478,-1.6509,-1.6528,-1.6533,-1.6547,-1.658,-1.6586,-1.656,-1.6614,-1.6622,-1.6655,-1.6665,-1.6654,-1.6657,-1.6744,-1.6745,-1.6746,-1.6735,0,0,0,0,0,0,-1.6412,-1.6422,-1.6433,-1.6468,-1.648,-1.6527,-1.6529,-1.6534,-1.6552,-1.6553,-1.659,-1.6596,-1.6614,-1.665,-1.6658,-1.6669,-1.6659,-1.6743,-1.6745,-1.6746,-1.6734,-1.6735,-1.6736,0,0,0,0,0,-1.6408,-1.6428,-1.6433,-1.6442,-1.6493,-1.6528,-1.6534,-1.6554,-1.6552,-1.6564,-1.6585,-1.6594,-1.6663,-1.6653,-1.6663,-1.6675,-1.6743,-1.6744,-1.6745,-1.6734,-1.6735,-1.6736,0,0,0,0,0,0,-1.6394,-1.6433,-1.6439,-1.6471,-1.6495,-1.6531,-1.6545,-1.6555,-1.6581,-1.6581,-1.6606,-1.6614,-1.6645,-1.6664,-1.6653,-1.6705,-1.6703,-1.6706,-1.6691,-1.6693,-1.6693,-1.6688,-1.6662,0,0,0,0,0,-1.6394,-1.6417,-1.6451,-1.6475,-1.6487,-1.6514,-1.653,-1.6543,-1.657,-1.6581,-1.6605,-1.6632,-1.666,-1.6677,-1.6705,-1.6737,-1.6746,-1.675,-1.6751,-1.6751,-1.6754,-1.6773,-1.6775,-1.6751,-1.6751,-1.6751,0,0,-1.6395,-1.6419,-1.6433,-1.6473,-1.6494,-1.6518,-1.6523,-1.6549,-1.6567,-1.6585,-1.6618,-1.6637,-1.6668,-1.6701,-1.6717,-1.6717,-1.6762,-1.6753,-1.6753,-1.6755,-1.6774,-1.6776,-1.6778,-1.6751,-1.6751,-1.6751,0,0,-1.641,-1.643,-1.6453,-1.6473,-1.6504,-1.6522,-1.6528,-1.6562,-1.6575,-1.6607,-1.6621,-1.6645,-1.6692,-1.6714,-1.6731,-1.6754,-1.6764,-1.6763,-1.6766,-1.6784,-1.6786,-1.6788,-1.6796,-1.6799,-1.6765,-1.6765,-1.6765,0,-1.6407,-1.6444,-1.6464,-1.6488,-1.6506,-1.6522,-1.6546,-1.6565,-1.6604,-1.6616,-1.6616,-1.6675,-1.6698,-1.6736,-1.6742,-1.6756,-1.6763,-1.6758,-1.6784,-1.6786,-1.6788,-1.6796,-1.6799,-1.6765,-1.6765,-1.6765,-1.6765,0,-1.6439,-1.6465,-1.6479,-1.6515,-1.6534,-1.6559,-1.6583,-1.6601,-1.6612,-1.663,-1.6664,-1.6692,-1.6725,-1.6735,-1.6747,-1.6776,-1.6775,-1.6779,-1.6778,-1.679,-1.6798,-1.6801,-1.6764,-1.6764,-1.6764,-1.6764,0,0,-1.6446,-1.6492,-1.6497,-1.6514,-1.6549,-1.657,-1.6595,-1.6627,-1.6641,-1.6668,-1.669,-1.673,-1.6734,-1.6753,-1.6768,-1.6784,-1.6801,-1.6787,-1.6788,-1.6788,-1.6834,-1.683,-1.6833,-1.6808,-1.6808,-1.6809,-1.6831,0,-1.6465,-1.6509,-1.6528,-1.6564,-1.6588,-1.6604,-1.6627,-1.6651,-1.6669,-1.6693,-1.6714,-1.6741,-1.6744,-1.6756,-1.6773,-1.6795,-1.681,-1.6794,-1.6829,-1.683,-1.682,-1.6838,-1.6834,-1.6853,-1.6834,-1.6835,-1.6835,0,-1.6493,-1.6518,-1.6556,-1.6588,-1.6599,-1.6619,-1.6649,-1.6671,-1.67,-1.6712,-1.6734,-1.6748,-1.6777,-1.6774,-1.6814,-1.6803,-1.6818,-1.6832,-1.6833,-1.6837,-1.6833,-1.6841,-1.686,-1.6863,-1.6841,-1.684,-1.684,0,-1.6493,-1.6537,-1.6565,-1.6579,-1.6618,-1.6631,-1.6648,-1.6677,-1.6694,-1.6722,-1.6734,-1.6764,-1.6781,-1.6805,-1.6827,-1.6823,-1.6865,-1.6864,-1.6876,-1.6876,-1.6884,-1.6883,-1.6905,-1.6895,-1.6895,-1.6895,-1.6894,0,-1.6512,-1.6535,-1.6566,-1.6583,-1.661,-1.6632,-1.6658,-1.6676,-1.6701,-1.6724,-1.674,-1.6761,-1.6789,-1.6814,-1.6832,-1.6862,-1.687,-1.6881,-1.6886,-1.6879,-1.6878,-1.689,-1.6889,-1.6895,-1.6895,-1.6895,-1.6895,0,-1.6517,-1.6539,-1.6571,-1.6605,-1.6614,-1.6632,-1.6661,-1.668,-1.6698,-1.6726,-1.6734,-1.6764,-1.6794,-1.6819,-1.6858,-1.6871,-1.6902,-1.6908,-1.6892,-1.6894,-1.6904,-1.6903,-1.6935,-1.694,-1.6926,-1.6926,-1.6926,0,-1.6527,-1.6545,-1.658,-1.6595,-1.6612,-1.6637,-1.6654,-1.6677,-1.6696,-1.673,-1.6744,-1.6775,-1.6801,-1.6848,-1.6874,-1.6905,-1.6911,-1.692,-1.6916,-1.6909,-1.6911,-1.6909,-1.6911,-1.692,-1.692,-1.692,-1.692,0,-1.6543,-1.6553,-1.6577,-1.6605,-1.6626,-1.6649,-1.6674,-1.6686,-1.6713,-1.6733,-1.6763,-1.6783,-1.6823,-1.6854,-1.6887,-1.6906,-1.6918,-1.6921,-1.6926,-1.6919,-1.6909,-1.6915,-1.6892,-1.6921,-1.6921,-1.6921,-1.692,-1.692,-1.6551,-1.6567,-1.6594,-1.6621,-1.6641,-1.6664,-1.6682,-1.6703,-1.6728,-1.6761,-1.6774,-1.6805,-1.6834,-1.688,-1.6899,-1.6925,-1.6926,-1.6932,-1.6934,-1.6935,-1.6934,-1.6906,-1.6931,-1.6931,-1.6931,-1.6931,-1.6931,0,-1.6567,-1.6586,-1.661,-1.6642,-1.6664,-1.6672,-1.6699,-1.6717,-1.6743,-1.6769,-1.6794,-1.6829,-1.6858,-1.6887,-1.6918,-1.6933,-1.694,-1.6941,-1.694,-1.6944,-1.6931,-1.6924,-1.6935,-1.6935,-1.6935,-1.6935,-1.6935,-1.6935,-1.6578,-1.6606,-1.6619,-1.6658,-1.6677,-1.6706,-1.6721,-1.6742,-1.6762,-1.68,-1.6824,-1.6842,-1.6869,-1.6903,-1.6931,-1.6939,-1.695,-1.6949,-1.6959,-1.6946,-1.6945,-1.6944,-1.6938,-1.6952,-1.6952,-1.697,-1.697,-1.697]},{"header":{"parameterUnit":"m.s-1","parameterCategory":1,"la1":30.2991,"la2":30.254,"lo1":-89.0895,"lo2":-89.0444,"dy":0.0017,"dx":0.0017,"nx":28,"ny":28,"refTime":"2023-03-22T21:00:00:Z","depth":0,"parameterNumber":3,"parameterNumberName":"V-component_of_WINDS"},"data":[0,0,0,0,0,0,0,0,0,0,0,0,0,0,0,0,0,0,0,0,0,0,0,0,0,0,0,0,0,0,0,0,0,0,0,0,0,0,0,0,0,0,0,0,0,0,0,0,0,0,0,0,0,0,0,0,0,0,3.6802,3.6801,0,3.676,3.6759,3.6759,3.6692,3.669,3.6689,3.6688,3.6644,3.6644,3.6644,0,0,0,0,0,0,0,0,0,0,0,0,0,3.6824,3.6824,3.6802,3.6801,3.6801,3.676,3.6759,3.6759,3.6692,3.669,3.6689,3.6687,3.6644,3.6644,3.6644,0,0,0,0,0,0,0,0,0,0,0,0,0,3.6801,3.6824,3.6802,3.6762,3.6758,3.676,3.6759,3.6759,3.6692,3.669,3.6688,3.6687,3.6644,3.6644,3.6644,3.6681,0,0,3.6644,3.6644,0,0,0,0,0,0,0,0,3.6803,3.68,3.6769,3.6765,3.6761,3.6729,3.6751,3.6733,3.6693,3.6717,3.6688,3.6686,3.6674,3.6671,3.6668,3.6679,3.6677,3.6644,3.6644,3.6644,3.6644,0,0,0,0,0,0,0,3.6804,3.6802,3.6785,3.6768,3.6763,3.6747,3.6742,3.6747,3.6706,3.6715,3.671,3.6706,3.6671,3.6668,3.6666,3.6676,3.6644,3.6644,3.6644,3.6644,3.6717,3.6719,0,0,0,0,0,0,3.6812,3.6804,3.6786,3.6784,3.6778,3.6748,3.6742,3.6741,3.6706,3.6699,3.6708,3.6703,3.6669,3.6666,3.6664,3.6706,3.6644,3.6644,3.6644,3.6715,3.6717,3.6719,0,0,0,0,0,0,3.6812,3.6811,3.6788,3.6792,3.6788,3.6749,3.6749,3.6741,3.6737,3.6701,3.6693,3.6711,3.6667,3.6664,3.6678,3.6704,3.6644,3.6644,3.6713,3.6716,3.6718,3.6789,0,0,0,0,0,0,3.6813,3.6811,3.6825,3.6793,3.6788,3.6803,3.675,3.6742,3.6738,3.6731,3.6702,3.6696,3.6665,3.6678,3.6678,3.6702,3.6644,3.671,3.6714,3.6717,3.6785,3.6794,3.6803,0,0,0,0,0,3.6814,3.6846,3.6826,3.6824,3.6805,3.6804,3.6801,3.6766,3.674,3.6754,3.673,3.6696,3.67,3.668,3.6679,3.6704,3.6708,3.6713,3.6717,3.6781,3.6793,3.6803,0,0,0,0,0,0,3.6882,3.6841,3.6819,3.6841,3.6827,3.6793,3.6809,3.678,3.6772,3.6767,3.6723,3.6717,3.6737,3.6721,3.6699,3.6738,3.6699,3.6704,3.6748,3.6759,3.6768,3.6772,3.6644,0,0,0,0,0,3.6899,3.6903,3.6867,3.689,3.6884,3.6848,3.6847,3.6821,3.6804,3.6798,3.6775,3.676,3.6757,3.6757,3.6753,3.6781,3.6775,3.6798,3.6807,3.6815,3.682,3.6835,3.6846,3.6734,3.6734,3.6734,0,0,3.6936,3.6914,3.6919,3.6904,3.6889,3.6894,3.6843,3.685,3.6853,3.6798,3.681,3.6793,3.6773,3.6795,3.6803,3.6783,3.6849,3.6821,3.6827,3.6828,3.6841,3.6852,3.6861,3.6737,3.6736,3.6736,0,0,3.7005,3.6988,3.7007,3.6994,3.6973,3.6948,3.6953,3.6923,3.691,3.6921,3.6881,3.6883,3.688,3.6868,3.6862,3.6927,3.6896,3.6926,3.6975,3.699,3.6999,3.7007,3.7032,3.7041,3.6931,3.6931,3.6931,0,3.7053,3.7058,3.702,3.703,3.7024,3.6975,3.6994,3.6983,3.6962,3.696,3.6937,3.6933,3.6915,3.6935,3.6951,3.6946,3.6951,3.693,3.7001,3.7008,3.7015,3.7038,3.7047,3.6935,3.6935,3.6934,3.6934,0,3.7119,3.7124,3.7141,3.7123,3.7119,3.7133,3.7097,3.7098,3.7073,3.7051,3.7063,3.7041,3.7032,3.7034,3.7009,3.705,3.7038,3.7009,3.6969,3.703,3.7051,3.706,3.6941,3.6939,3.6938,3.6937,0,0,3.7231,3.7191,3.7198,3.719,3.7163,3.7166,3.7178,3.7169,3.7172,3.7159,3.7169,3.7167,3.714,3.7133,3.7106,3.7119,3.7174,3.7088,3.7087,3.7107,3.722,3.7244,3.7255,3.7153,3.7155,3.7156,3.7222,0,3.7296,3.7315,3.728,3.7307,3.7312,3.7265,3.7275,3.726,3.724,3.7241,3.7218,3.7219,3.7182,3.7177,3.7188,3.7166,3.7197,3.716,3.7163,3.7164,3.7172,3.7265,3.729,3.7354,3.723,3.7231,3.7232,0,3.7375,3.7366,3.7394,3.7367,3.7367,3.7377,3.7368,3.7368,3.7351,3.7335,3.7327,3.7296,3.7306,3.7266,3.728,3.7256,3.7255,3.7244,3.7245,3.7246,3.7203,3.727,3.7373,3.7384,3.7245,3.7244,3.7243,0,3.7456,3.7451,3.7468,3.7461,3.7429,3.7438,3.7425,3.7405,3.7403,3.7394,3.7392,3.7384,3.7381,3.7375,3.7343,3.7317,3.7361,3.7319,3.7349,3.7351,3.7362,3.7363,3.7469,3.7359,3.7359,3.7358,3.7358,0,3.7533,3.7553,3.7504,3.7514,3.7535,3.7494,3.7516,3.7498,3.7481,3.7487,3.7445,3.7452,3.7407,3.7409,3.7383,3.74,3.7398,3.7386,3.738,3.7391,3.7393,3.7391,3.7387,3.7361,3.736,3.736,3.736,0,3.7628,3.7596,3.7611,3.758,3.7572,3.7589,3.7562,3.757,3.7547,3.7556,3.7555,3.7519,3.7519,3.7486,3.7479,3.7461,3.749,3.7474,3.7496,3.7492,3.7526,3.7524,3.7636,3.765,3.7529,3.7531,3.7532,0,3.7681,3.7695,3.7665,3.7666,3.7656,3.7658,3.7655,3.7616,3.7615,3.7596,3.7607,3.7604,3.76,3.7602,3.7576,3.7571,3.7555,3.7595,3.7554,3.7566,3.7558,3.7559,3.7561,3.7604,3.7606,3.7607,3.7608,0,3.7779,3.7762,3.776,3.7753,3.7751,3.7743,3.7733,3.7736,3.7693,3.7695,3.7695,3.7691,3.7684,3.7682,3.7672,3.7659,3.7627,3.7621,3.7628,3.7641,3.7655,3.765,3.7522,3.7619,3.7618,3.7617,3.7617,3.7616,3.7855,3.7866,3.7847,3.7846,3.7834,3.7826,3.7833,3.781,3.781,3.7802,3.7778,3.7782,3.7764,3.7748,3.7737,3.774,3.772,3.773,3.7733,3.7737,3.7744,3.7653,3.7738,3.7737,3.7737,3.7737,3.7736,0,3.7953,3.7938,3.7938,3.7925,3.7925,3.7894,3.7881,3.7883,3.7887,3.7873,3.787,3.787,3.7868,3.7841,3.7836,3.7843,3.7829,3.7844,3.7844,3.7841,3.7761,3.7756,3.7856,3.7856,3.7856,3.7855,3.7855,3.7855,3.8004,3.8021,3.8002,3.8013,3.7997,3.8002,3.7997,3.7989,3.7978,3.798,3.7978,3.7961,3.7942,3.7935,3.7932,3.7924,3.7925,3.7945,3.7932,3.7858,3.7847,3.7836,3.7831,3.7945,3.7945,3.8013,3.8013,3.8014]}]]